www.pogodaiklimat.ru

Погода и климат >> Архив погоды >> Казахстан >> Тараз


АРХИВ ПОГОДЫ в Таразе

Время (UTC), дата Ветер
(напр.,м/с)
 
Видим.   Явления Облачность Т
(С)
Тd
(С)
f
(%)
Тe
(С)
Тes
(С)
Комфортность P
(гПа)
Po
(гПа)
Тmin
(С)
Tmax
(С)
R
(мм)
R24
(мм)
S
(см)
15 16.09 штиль 0 10 км 10/8 600 м
[Cb cap Ac lent]
+18.2 +0.9 31 +18 +18 прохладно 1019.3 945.3 +25.0
18 16.09 штиль 0 10 км 10/10 600 м
[Cb cap]
+16.8 +3.0 40 +17 +17 по сезону 1020.6 946.0 +25.0
21 16.09 З 2 10 км 6/6 1000 м
[Sc diur, vesp]
+13.6 +3.4 50 +13 +13 прохладно 1021.4 945.9
00 17.09 штиль 0 10 км ясно +11.5 +3.6 58 +11 +11 прохладно 1022.7 946.6
03 17.09 штиль 0 50 км ясно +17.8 +3.4 38 +18 +21 по сезону 1022.3 947.8
06 17.09 ЮВ 1 50 км ясно +23.1 0.0 22 +22 +35 комфорт 1020.5 947.4 +10.5
09 17.09 СВ 5 50 км ясно +24.1 -0.7 19 +23 +28 комфорт 1018.8 946.2
12 17.09 СВ 3 50 км ясно +24.0 0.0 20 +23 +24 комфорт 1017.9 945.1
15 17.09 штиль 0 10 км ясно +17.8 +1.5 33 +18 +18 прохладно 1019.1 944.9 +24.9
18 17.09 штиль 0 10 км ясно +14.9 +1.7 41 +15 +15 по сезону 1018.8 943.8 +24.9
21 17.09 Ю 1 10 км ясно +13.6 +2.5 47 +14 +14 по сезону 1018.2 942.9
00 18.09 Ю 1 10 км ясно +10.2 +3.0 61 +10 +10 прохладно 1018.2 942.1
03 18.09 штиль 0 50 км ясно +17.2 +4.3 42 +17 +20 прохладно 1016.0 941.8
06 18.09 штиль 0 50 км ясно +25.0 +0.6 20 +24 +38 комфорт 1012.4 940.3 +8.9
09 18.09 СВ 2 50 км ясно +27.8 +0.4 17 +26 +35 жарко 1010.6 939.2
12 18.09 штиль 0 50 км ясно +28.9 +1.1 17 +27 +28 жарко 1009.6 938.5
15 18.09 ЮЗ 1 10 км 4/0
[Ci fib]
+21.0 +3.4 31 +23 +23 комфорт 1012.3 939.3 +29.5
18 18.09 штиль 0 10 км 8/8
[Sc diur, vesp]
+18.7 +0.4 29 +19 +19 тепло 1014.3 940.5 +29.5
21 18.09 штиль 0 10 км 6/6 1000 м
[Sc diur, vesp]
+17.9 +1.3 33 +18 +18 тепло 1015.0 941.0
00 19.09 ЮЗ 2 10 км 8/8 1000 м
[Sc diur, vesp]
+17.7 +0.6 32 +18 +18 тепло 1015.7 941.5
03 19.09 штиль 0 50 км 4/4 1000 м
[Sc diur, vesp]
+24.3 +0.2 20 +23 +25 комфорт 1014.7 942.3
06 19.09 ЮЗ 2 50 км 6/0
[Ac lent]
+30.2 +3.2 18 +28 +33 жарко 1013.5 942.5 +16.5
09 19.09 В 3 50 км ясно +31.9 +4.3 18 +30 +38 жарко 1011.8 941.3
12 19.09 штиль 0 50 км ясно +31.6 +5.1 19 +30 +31 жарко 1011.7 941.2
15 19.09 ЮЗ 1 10 км ясно +23.1 +1.1 23 +22 +22 комфорт 1015.0 942.3 +32.6
18 19.09 ЮЗ 1 10 км ясно +23.1 +1.1 23 +22 +22 комфорт 1015.0 942.3 +32.6
21 19.09 ЮЗ 1 10 км ясно +17.0 +2.5 38 +18 +18 тепло 1017.8 943.4
00 20.09 ЮЗ 2 10 км ясно +15.0 +2.7 44 +15 +15 по сезону 1018.7 943.7
03 20.09 штиль 0 50 км ясно +20.6 +6.1 39 +21 +24 комфорт 1017.5 944.1
06 20.09 С 2 50 км ясно +25.6 +2.5 22 +24 +35 комфорт 1015.8 943.6 +11.3
09 20.09 СВ 3 50 км ясно +28.2 +2.9 20 +26 +34 жарко 1013.7 942.3
12 20.09 СВ 3 50 км ясно +28.4 +2.7 19 +26 +27 жарко 1013.1 941.7
15 20.09 штиль 0 10 км ясно +20.7 +5.1 36 +21 +21 комфорт 1015.2 941.9 +29.3
18 20.09 штиль 0 10 км ясно +17.5 +4.1 41 +18 +18 тепло 1015.0 941.0 +29.3
21 20.09 ЮЗ 1 10 км ясно +15.9 +4.6 47 +17 +17 тепло 1014.7 940.3
00 21.09 ЮВ 1 10 км ясно +12.4 +5.3 62 +13 +13 по сезону 1014.9 939.6
03 21.09 штиль 0 50 км ясно +19.6 +7.3 45 +20 +23 тепло 1013.1 939.7
06 21.09 З 2 50 км ясно +27.8 +8.4 29 +28 +38 жарко 1010.4 939.1 +12.0
09 21.09 В 1 50 км ясно +31.1 +3.6 17 +29 +39 жарко 1007.9 937.3
12 21.09 СВ 2 50 км ясно +30.8 +3.0 17 +28 +29 жарко 1006.8 936.4
15 21.09 штиль 0 10 км ясно +22.4 +3.6 29 +22 +22 комфорт 1008.5 936.1 +31.9
18 21.09 штиль 0 10 км ясно +19.9 +3.8 35 +20 +20 тепло 1008.2 935.3 +31.9
21 21.09 ЮЗ 1 10 км ясно +20.1 +2.1 30 +21 +21 комфорт 1008.1 935.1
00 22.09 штиль 0 10 км ясно +15.6 +3.0 43 +16 +16 тепло 1009.2 935.1
03 22.09 ЮЗ 2 50 км ясно +22.4 +3.6 29 +22 +24 комфорт 1007.9 935.5
06 22.09 СЗ 1 50 км ясно +34.1 +5.4 17 +32 +44 жарко 1004.5 935.1 +13.4
09 22.09 З 3 50 км ясно +35.8 +6.8 17 +34 +41 очень
жарко
1002.8 933.8
12 22.09 З 3 50 км ясно +32.3 +4.8 18 +30 +31 жарко 1003.8 934.0
15 22.09 ЮЗ 1 10 км ясно +27.7 +1.1 18 +26 +26 жарко 1006.2 935.1 +36.4
18 22.09 ЮЗ 1 10 км ясно +23.5 0.0 21 +22 +22 комфорт 1008.0 935.8 +36.4
21 22.09 СЗ 3 10 км 8/8 1000 м
[Sc diur, vesp]
+15.1 +8.8 66 +14 +14 по сезону 1018.4 943.5
00 23.09 С 2 10 км 10/10 1000 м
[Sc diur, vesp]
+11.8 +7.4 74 +11 +11 по сезону 1023.8 947.7
03 23.09 С 4 20 км {ливн. осадки} 8/8 600 м
[Sc diur, vesp Ac lent Ci fib]
+10.3 +9.0 92 +8 +8 очень
холодно
1025.9 949.4
06 23.09 В 2 20 км {ливн. осадки} 10/10 1000 м
[Sc diur, vesp]
+12.9 +7.6 70 +12 +12 очень
холодно
1026.2 950.3 +9.9 0.0
09 23.09 штиль 0 50 км 4/0
[Ac lent]
+17.4 +7.3 51 +17 +26 холодно 1022.8 948.2
12 23.09 СВ 1 50 км 3/0
[Ci sp]
+18.4 +6.8 47 +20 +21 прохладно 1020.9 946.7

 

Местоположение метеостанции Тараз (Жамбылская область, Казахстан): широта 42.85 долгота 71.38 высота над уровнем моря 655 м.

В архиве по умолчанию представлена погода в Таразе за последнюю неделю. Архивные данные за месяц целиком и за предыдущие месяцы, начиная с января 2011 года, Вы можете получить, выбрав интересующий диапазон дат из раскрывающегося списка и нажав кнопку "Ввод!".


*Определитесь, кто Вы:
робот инопланетянин человек

Внимание! Время в таблицах - всемирное. Для получения местного времени необходимо прибавить поправку, которая равна 6 ч.

Смотрите также архив погоды в соседних городах и на ближайших метеорологических станциях:

Погода в Кызыл-Адыре (Таласская область, Киргизия) (30 км)
Погода в Акжаре (Жамбылская область, Казахстан) (43 км)
Погода в Нурлыкенте (Жамбылская область, Казахстан) (49 км)
Погода в Акыртобе (Жамбылская область, Казахстан) (61 км)
Погода в Таласе (Таласская область, Киргизия) (78 км)
Погода в Каратау (Жамбылская область, Казахстан) (82 км)
Погода в Ойгаинге (Ташкентская область, Узбекистан) (86 км)
Погода в Ауле Турара Рыскулова (Южно-Казахстанская область, Казахстан) (97 км)
Погода в Шуылдаке (Южно-Казахстанская область, Казахстан) (99 км)
Погода в Чаткале (Джалал-Абадская область, Киргизия) (106 км)

Пояснения к столбцам:

Ветер - указаны скорость ветра в м/с - средняя за 10 мин, порывы в срок и между сроками (в фигурных скобках) и направление, откуда дует ветер: С - северный, СВ - северо-восточный, В - восточный, ЮВ - юго-восточный, Ю - южный, ЮЗ - юго-западный, З - западный, СЗ - северо-западный.
Видимость - горизонтальная дальность видимости в метрах или километрах. При видимости от 1 до 10 км при отсутствии осадков обычно наблюдается дымка, при ухудшении видимости до 1 км и менее - туман. В сухую погоду видимость может ухудшаться дымом, пылью или мглою.
Явления - указаны атмосферные явления, наблюдавшиеся в срок или в последний час перед сроком; фигурными скобками обозначены явления, наблюдавшиеся между сроками (за 1-3 часа до срока); квадратными скобками обозначены град или гололедные отложения с указанием их диаметра в мм.
Облачность - указаны через наклонную черту общая и нижняя облачность в баллах и высота нижней границы облаков в метрах; квадратными скобками обозначены формы облаков: Ci - перистые, Cs - перисто-слоистые, Cc - перисто-кучевые, Ac - высококучевые, As - высокослоистые, Sc - слоисто-кучевые, Ns - слоисто-дождевые, Cu - кучевые, Cb - кучево-дождевые. Подробнее классификацию облаков см. в Атласе облаков (PDF).
T - Температура воздуха - температура, измеренная на высоте 2 м над землей.
Td - Температура точки росы - температура, при понижении до которой содержащийся в воздухе водяной пар достигнет насыщения.
f - Относительная влажность воздуха - влажноcть воздуха, измеренная на высоте 2 м над землей.
Te - Эффективная температура - температура, которую ощущает одетый по сезону человек в тени. Характеристика душности погоды. При расчете учитывается влияние влажности воздуха и скорости ветра на теплоощущения человека.
Tes - Эффективная температура на солнце - температура, которую ощущает человек, с поправкой на солнечный нагрев. Характеристика знойности погоды. Зависит от высоты солнца над горизонтом, облачности и скорости ветра. Ночью, в пасмурную погоду, а также при ветре 12 м/с и более поправка равна нулю.
P - Атмосферное давление - приведенное к уровню моря атмосферное давление.
Po - Атмосферное давление - измеренное на уровне метеостанции атмосферное давление.
Tmin - Минимальная температура - минимум температуры воздуха на высоте 2 м над землей.
Tmax - Максимальная температура - максимум температуры воздуха на высоте 2 м над землей.
R - Количество осадков - Количество выпавших осадков за период времени, мм. При наведении курсора мыши на число - период времени, за который выпало указанное количество осадков.
R24 - Количество осадков - Количество выпавших осадков за 24 часа, мм.
S - Снежный покров - Высота снежного покрова, см. При наведении курсора мыши на число - состояние снежного покрова и степень покрытия местности в баллах.